Location: Kimberly
(42.5380°N, 114.3640°W)
Time: 10:18:08
(UTC-06:00)

X-37B - Pass Details

Date: 07 August 2021
Orbit: 381 x 393 km, 45.0° (Epoch: 29 August)

Event Time Altitude Azimuth Distance (km) Brightness Sun altitude
Exits shadow 05:46:56 - 284° (WNW) 1,762 3.5 -8.9°
Reaches altitude 10° 05:47:50 10° 287° (WNW) 1,394 3.0 -8.7°
Maximum altitude 05:50:55 54° 6° (N) 467 1.2 -8.2°
Drops below altitude 10° 05:54:00 10° 86° (E) 1,394 4.6 -7.8°
Sets 05:56:06 0° 91° (E) 2,247 5.6 -7.4°
